Scappoose, OR

10:37 PM PDT on April 26, 2017 (GMT -0700)
Scappoose Industrial

Weather History for KSPB - February, 2014

Change the Weather History Date:

Thursday, February 20, 2014

  Actual Average Record
Temperature  
Mean Temperature 44 °F -  
Max Temperature 48 °F - 58 °F (2015)
Min Temperature 40 °F - 19 °F (2006)
Degree Days  
Heating Degree Days 21    
Month to date heating degree days 558  
Since 1 July heating degree days 3448  
Cooling Degree Days 0    
Month to date cooling degree days 0  
Year to date cooling degree days 0  
Moisture  
Dew Point 42 °F    
Average Humidity 90    
Maximum Humidity 100    
Minimum Humidity 80    
Precipitation  
Precipitation 0.21 in - 0.72 in (2017)
Month to date precipitation 6.01  
Year to date precipitation 8.66  
Sea Level Pressure  
Sea Level Pressure 30.24 in    
Wind  
Wind Speed 3 mph (SE)    
Max Wind Speed 10 mph    
Max Gust Speed 15 mph    
Visibility 7 miles    
Events Fog , Rain    
T = Trace of Precipitation, MM = Missing Value Source: NWS Daily Summary

Daily Weather History Graph

Daily Weather History Graph

Search for Another Location

Airport or City:

Trip Planner

Search our weather history database for the weather conditions in past years. The results will help you decide how hot, cold, wet, or windy it might be!

Date:

Astronomy

Feb. 20, 2014 Rise Set
Actual Time 7:05 AM PST 5:45 PM PST
Civil Twilight 6:35 AM PST 6:15 PM PST
Nautical Twilight 6:00 AM PST 6:50 PM PST
Astronomical Twilight 5:26 AM PST 7:24 PM PST
Moon No Moon Rise 9:33 AM PST (2/20)
Length of Visible Light 11h 40m
Length of Day
10h 40m
Waning Gibbous, 70% of the Moon is Illuminated
Feb 20
Waning Gibbous
Feb 22
Last Quarter
Mar 1
New
Mar 8
First Quarter
Mar 16
Full

Hourly Weather History & Observations

Time (PST) Temp. Windchill Dew Point Humidity Pressure Visibility Wind Dir Wind Speed Gust Speed Precip Events Conditions
12:13 AM 43.0 °F 38.8 °F 39.0 °F 86% 30.18 in 10.0 mi South 6.9 mph - N/A   Overcast
12:53 AM 43.0 °F 38.2 °F 39.9 °F 89% 30.17 in 10.0 mi South 8.1 mph - N/A   Overcast
1:45 AM 43.0 °F 38.2 °F 39.9 °F 89% 30.17 in 10.0 mi South 8.1 mph - 0.00 in Rain Light Rain
1:53 AM 43.0 °F 38.2 °F 39.9 °F 89% 30.17 in 10.0 mi South 8.1 mph - 0.00 in Rain Light Rain
2:32 AM 43.0 °F 39.5 °F 41.0 °F 93% 30.17 in 7.0 mi South 5.8 mph - 0.01 in Rain Light Rain
2:53 AM 43.0 °F 38.8 °F 41.0 °F 93% 30.17 in 8.0 mi South 6.9 mph - 0.01 in   Overcast
3:01 AM 43.0 °F 38.2 °F 41.0 °F 93% 30.16 in 8.0 mi South 8.1 mph - N/A   Overcast
3:53 AM 44.1 °F 41.5 °F 42.1 °F 93% 30.16 in 10.0 mi South 4.6 mph - 0.01 in   Overcast
4:13 AM 43.0 °F 39.5 °F 42.1 °F 97% 30.15 in 8.0 mi South 5.8 mph - 0.01 in Rain Light Rain
4:38 AM 44.1 °F 41.5 °F 42.1 °F 93% 30.16 in 9.0 mi South 4.6 mph - 0.02 in Rain Light Rain
4:53 AM 44.1 °F - 42.1 °F 93% 30.17 in 7.0 mi Calm Calm - 0.04 in Rain Light Rain
5:15 AM 44.1 °F - 42.1 °F 93% 30.17 in 9.0 mi Calm Calm - 0.04 in Rain Light Rain
5:53 AM 44.1 °F 40.8 °F 42.1 °F 93% 30.17 in 10.0 mi SSW 5.8 mph - 0.05 in   Overcast
6:53 AM 43.0 °F 40.3 °F 42.1 °F 97% 30.18 in 10.0 mi East 4.6 mph - 0.00 in Rain Light Rain
7:53 AM 43.0 °F - 41.0 °F 93% 30.19 in 10.0 mi Calm Calm - 0.01 in Rain Light Rain
8:53 AM 44.1 °F - 42.1 °F 93% 30.22 in 10.0 mi Calm Calm - 0.00 in   Overcast
9:53 AM 46.0 °F 43.9 °F 43.0 °F 89% 30.22 in 10.0 mi SE 4.6 mph - N/A   Overcast
10:37 AM 46.0 °F 43.9 °F 44.1 °F 93% 30.24 in 10.0 mi North 4.6 mph - 0.00 in Rain Light Rain
10:44 AM 46.0 °F 43.9 °F 44.1 °F 93% 30.24 in 10.0 mi NNE 4.6 mph - 0.00 in Rain Light Rain
10:53 AM 46.9 °F - 45.0 °F 93% 30.24 in 10.0 mi ENE 3.5 mph - 0.00 in   Overcast
11:53 AM 48.0 °F - 43.0 °F 83% 30.25 in 10.0 mi Calm Calm - 0.00 in   Overcast
12:09 PM 48.0 °F - 44.1 °F 86% 30.25 in 10.0 mi NNE 4.6 mph - 0.00 in   Overcast
12:53 PM 48.0 °F - 44.1 °F 86% 30.25 in 10.0 mi Calm Calm - 0.00 in Rain Light Rain
1:38 PM 46.9 °F - 43.0 °F 86% 30.25 in 6.0 mi Calm Calm - 0.03 in Rain Light Rain
1:53 PM 46.9 °F - 43.0 °F 86% 30.25 in 7.0 mi Calm Calm - 0.04 in Rain Light Rain
2:53 PM 46.9 °F - 43.0 °F 86% 30.25 in 10.0 mi ENE 3.5 mph - 0.02 in Rain Light Rain
3:39 PM 46.0 °F 44.8 °F 44.1 °F 93% 30.25 in 10.0 mi NNE 3.5 mph - 0.01 in Rain Light Rain
3:53 PM 46.0 °F - 43.0 °F 89% 30.25 in 10.0 mi Calm Calm - 0.01 in Rain Light Rain
4:07 PM 46.0 °F - 44.1 °F 93% 30.25 in 7.0 mi Calm Calm - 0.01 in Rain Light Rain
4:38 PM 46.0 °F - 44.1 °F 93% 30.25 in 10.0 mi Calm Calm - 0.01 in   Overcast
4:53 PM 46.0 °F - 43.0 °F 89% 30.25 in 10.0 mi Calm Calm - 0.01 in   Overcast
5:53 PM 45.0 °F - 44.1 °F 97% 30.25 in 10.0 mi Calm Calm - 0.00 in Rain Light Rain
6:43 PM 45.0 °F 43.5 °F 43.0 °F 93% 30.26 in 10.0 mi NNE 3.5 mph - 0.01 in   Overcast
6:53 PM 45.0 °F 43.5 °F 44.1 °F 97% 30.26 in 10.0 mi NNE 3.5 mph - 0.01 in   Overcast
7:24 PM 45.0 °F - 44.1 °F 97% 30.27 in 10.0 mi Calm Calm - 0.00 in   Overcast
7:53 PM 44.1 °F - 44.1 °F 100% 30.27 in 8.0 mi Calm Calm - 0.00 in   Overcast
8:53 PM 43.0 °F - 43.0 °F 100% 30.27 in 6.0 mi Calm Calm - N/A   Overcast
9:01 PM 44.1 °F - 43.0 °F 96% 30.27 in 4.0 mi Calm Calm - N/A   Overcast
9:10 PM 44.1 °F - 43.0 °F 96% 30.27 in 8.0 mi Calm Calm - N/A   Overcast
9:23 PM 43.0 °F - 42.1 °F 97% 30.27 in 7.0 mi Calm Calm - N/A   Overcast
9:46 PM 42.1 °F 40.2 °F 41.0 °F 96% 30.28 in 1.8 mi East 3.5 mph - N/A   Overcast
9:53 PM 43.0 °F - 41.0 °F 93% 30.28 in 1.5 mi Calm Calm - N/A   Overcast
9:57 PM 43.0 °F - 42.1 °F 97% 30.28 in 4.0 mi Calm Calm - N/A   Overcast
10:01 PM 42.1 °F - 42.1 °F 100% 30.28 in 1.8 mi Calm Calm - N/A   Overcast
10:12 PM 43.0 °F - 42.1 °F 97% 30.28 in 3.0 mi Calm Calm - N/A   Overcast
10:21 PM 41.0 °F - 41.0 °F 100% 30.28 in 1.8 mi Calm Calm - N/A   Overcast
10:34 PM 41.0 °F - 41.0 °F 100% 30.28 in 0.5 mi Calm Calm - N/A Fog Fog
10:53 PM 41.0 °F 39.0 °F 41.0 °F 100% 30.29 in 0.5 mi NNW 3.5 mph - N/A Fog Fog
10:59 PM 41.0 °F - 41.0 °F 100% 30.29 in 2.0 mi Calm Calm - N/A   Overcast
11:07 PM 39.9 °F 37.8 °F 39.9 °F 100% 30.28 in 3.0 mi West 3.5 mph - N/A   Overcast
11:13 PM 39.9 °F - 39.9 °F 100% 30.28 in 1.8 mi Calm Calm - N/A   Overcast
11:29 PM 39.9 °F - 39.9 °F 100% 30.29 in 0.5 mi Calm Calm - N/A Fog Fog
11:36 PM 39.9 °F - 39.9 °F 100% 30.29 in 0.2 mi Calm Calm - N/A Fog Fog
11:53 PM 39.9 °F 37.8 °F 39.9 °F 100% 30.29 in 0.2 mi West 3.5 mph - N/A Fog Fog